Other Public Products
Issued by NWS Charleston, SC

Current Version | Previous Version | Graphics & Text | Print | Product List | Glossary On
Versions: 1 2 3 4 5 6 7 8 9 10 11 12 13 14 15 16 17 18 19 20 21 22 23 24 25 26 27 28 29 30 31 32 33 34 35 36 37 38 39 40 41 42 43 44 45 46 47 48 49 50
000 FPUS82 KCHS 210312 OPUCHS TEST...KCHS/KSAV Gateway Observations...TEST National Weather Service Charleston SC 1000 PM EST SAT JAN 20 2018 NOTE: "fair" indicates few or no clouds below 12,000 feet with no significant weather and/or obstructions to visibility. SCZ050-WAZ558-NCZ071-TXZ119-213-PAZ071-DCZ001-FLZ074-172-MI076- NYZ176-178-MAZ016-IL014-TNZ027-NJZ106-GAZ044-MD014-210400- ...Gateway Observations for Charleston International... CITY SKY/WX TMP DP RH WIND PRES REMARKS Chas Airport FAIR 46 29 51 S5 30.27R Seattle CLOUDY 46 37 71 S15 29.99F Charlotte FAIR 45 33 63 CALM 30.22S Dallas DFW PTCLDY 62 56 80 S18 29.90S Dallas Love MOCLDY 62 56 80 S20 29.92S Philladelphia MOCLDY 39 29 67 W5 30.07R WCI 36 Wash National FAIR 37 31 78 S5 30.09R WCI 33 Baltimore FAIR 38 30 73 W5 30.08R WCI 34 Miami MOCLDY 69 61 75 N3 30.24R Detroit FAIR 33 30 88 SW8 30.05R WCI 26 Newark FAIR 40 27 59 S6 30.02S WCI 36 Laguardia FAIR 47 27 45 W8 30.01R J F K FAIR 40 29 64 W9 30.04R WCI 34 Boston Logan MOCLDY 42 28 57 W10 29.94R Ft. Lauderdale MOCLDY 69 62 78 NE5 30.23R Chicago O`Hare CLOUDY 40 35 83 S7 29.97F WCI 35 Chicago Midway CLOUDY 42 37 82 SW6 29.98F Houston Bush LGT RAIN 66 65 96 SE9 30.04F Houston Hobby CLOUDY 65 65 100 S7 30.05S Nashville MOCLDY 55 37 50 S9 30.17S Atlanta FAIR 48 38 68 W5 30.25S $$ GAZ044-118-TXZ119-213-NCZ071-DCZ001-MDZ014-506-PAZ021-071-NJZ106- NYZ176-178-MAZ106-OHZ011-021-055-MIZ076-KYZ091-ILZ014-INZ047- MNZ060-ONZ431-210400- ...Gateway Observations for Savannah International... CITY SKY/WX TMP DP RH WIND PRES REMARKS Savannah Arpt FAIR 48 32 53 S5 30.29R Atlanta FAIR 48 38 68 W5 30.25S Charlotte FAIR 45 33 63 CALM 30.22S Dallas DFW PTCLDY 62 56 80 S18 29.90S Houston Bush LGT RAIN 66 65 96 SE9 30.04F Wash National FAIR 37 31 78 S5 30.09R WCI 33 Wash Dulles FAIR 39 30 70 N5 30.08R WCI 36 Baltimore FAIR 38 30 73 W5 30.08R WCI 34 Philadelphia MOCLDY 39 29 67 W5 30.07R WCI 36 Newark FAIR 40 27 59 S6 30.02S WCI 36 Laguardia FAIR 47 27 45 W8 30.01R J F K FAIR 40 29 64 W9 30.04R WCI 34 Boston MOCLDY 42 28 57 W10 29.94R Pittsburg FAIR 38 28 67 SW3 30.09R Akron CLOUDY 40 30 67 W6 30.08R WCI 36 Cleveland CLOUDY 39 30 70 SW7 30.09S WCI 34 Cincinnati CLOUDY 44 43 96 S5 30.10F Columbus CLOUDY 39 32 74 S7 30.11S WCI 34 Detroit FAIR 33 30 88 SW8 30.05R WCI 26 Chicago O`Hare CLOUDY 40 35 83 S7 29.97F WCI 35 Minneapolis MOCLDY 37 32 82 W3 29.93S Indianapolis DRZL/FOG 40 40 100 S3 30.08S VSB 3/4 Toronto Canada MOCLDY 34 27 75 S3 30.00S $$

USA.gov is the U.S. government's official web portal to all federal, state and local government web resources and services.